Location: Newark
(54.8972°N, 99.8189°W)
Time: 10:55:54
(UTC+00:00)

Transit 2A - Pass Details

Date: 21 November 2019
Orbit: 602 x 957 km, 66.7° (Epoch: 08 December)

Event Time Altitude Azimuth Distance (km) Brightness Sun altitude
Rises 02:41:05 0° 316° (NW) 2,875 9.8 -35.5°
Reaches altitude 10° 02:43:22 10° 313° (NW) 1,958 8.8 -35.8°
Enters shadow 02:44:13 16° 310° (NW) 1,624 8.3 -35.9°
